Showing default

COSMOS 1693, 16141

Orbit data source: Space-Track

COSMOS 1693, 16141 is a payload satellite owned by GUKOS (CIS) in LEO that was launched on Wed, 09 Oct 1985 UTC via a TSIKLON-3 launch vehicle from the Plesetsk Missile And Space Complex (PKMTR). Payload-class satellites include a variety of spacecraft equipped with specific instruments for various scientific and technological missions. These include communications satellites like Starlink; space stations such as the ISS; scientific satellites like the Hubble; Earth observation satellites from companies like Planet Labs, Umbra, and HawkEye 360; GPS; miniature CubeSats for education and research; and military/defense satellites.

Loading next visibility...
Identifier
16141, 1985-094D
Orbit
LEO
Last TLE update
16 hours ago
Origin
Manufacturer
NPO PM
Mission
Defense Communications
Bus & Motor
STRELA-3, Unknown motor
Mass
225 kg wet, 225 kg dry
Launch date (UTC)
1985-10-09 (40 years ago)
Launch vehicle
TSIKLON-3
Launch site
Plesetsk Missile And Space Complex (PKMTR)
Object type
Payload
Rocket body
Debris
Shape & HBR
Cyl, 1.6 m
Radar Cross Section
1.257 m², Medium (>0.1 m² and < 1m²)

Expand to show TLE details & history

TLE from 16 hours ago
0 COSMOS 1693
1 16141U 85094D   25185.83353473  .00000007  00000-0 -22125-4 0  9990
2 16141  82.6108 113.9851 0015913 104.8267 312.7995 12.64357424833643
Epoch: 2025-07-04T20:00Z
TLE epoch observation values (Epoch: 2025-07-04T20:00:17.4Z)
Latitude
56.84408°
Longitude
-97.77498°
Altitude
1,406.069 km
Speed
7.166 km/s
True Right ascension
08h 21m 30s
True Declination
56° 41' 58"
Sunlit
Object was in daylight at epoch
Visualization orbit readout
Latitude
55.58873°
Longitude
59.56095°
Altitude
1,402.58 km
Speed
7.169 km/s
Apparent Right ascension
14h 51m 24s
Apparent Declination
23° 43' 13"
Sunlit
Object is in daylight
Visualization observer readout
Local Sidereal Time
23:27:12
Azimuth
313.591° NW
Elevation
-10.561°
Doppler factor
1
Orbital elements
Apogee altitude
1,414.708 km
Perigee altitude
1,389.946 km
Semi-major axis
7,780.464 km
Eccentricity
0.00159
Inclination
82.6108°
RAAN
113.9851°
Arg. of periapsis
104.8267°
True anomaly
Unknown
Mean anomaly
312.7995°
Eccentric anomaly
Unknown
Mean motion
3.16253 °/min
Orbital period
113.83 mins
BSTAR
-0.000022125
Loading maneuver chart data...
Loading SW <> Apogee altitude chart data...
Loading historical data...
Loading historical data...
Loading historical data...
Loading historical data...
Loading historical data...
Loading historical data...
Loading historical data...

COSMOS 1693 Visibility forecast

Observer location: undefined°, undefined°

Span
Click to sort rows by Start time (UTC) header in descending order
Start Az.
Max El. time (UTC)
Max El. Az.
Max El.
End time (UTC)
End Az.
13 mins2025-07-05 18:35:48.342Z136.909° SSE2025-07-05 18:41:48.342Z88.713° E25.353°2025-07-05 18:48:48.342Z29.377° NE
14 mins2025-07-05 20:29:48.342Z207.087° SW2025-07-05 20:36:48.342Z289.671° WNW39.975°2025-07-05 20:43:48.342Z358.216° N
14 mins2025-07-06 06:30:48.342Z4.313° NNE2025-07-06 06:36:48.342Z72.854° E40.342°2025-07-06 06:44:48.342Z156.203° SSE
12 mins2025-07-06 08:25:48.342Z325.045° NNW2025-07-06 08:30:48.342Z281.818° WNW24.909°2025-07-06 08:37:48.342Z223.183° SW
|